USA202 UZSS-UZTT

Flight info

Callsign USA202
Flight time 0h 40m
Altitude 23000
Route OGNOB2A OGNOB M168 KUFIM KUFIM2T
Aircraft DH8D/M-SDE2E3FGRY/H

Departure

Time 2026-05-01 10:37
Airport Samarkand International Airport (UZSS)

Arrival

Time 2026-05-01 11:18
Airport Tashkent International Airport (UZTT)
Time Latitude Longitude Altitude Speed Heading
2026-05-01 10:00 39.69702 66.98894 2239 ft 0 kts 187°
2026-05-01 10:20 39.69701 66.98894 2238 ft 0 kts 187°
2026-05-01 10:21 39.69712 66.98895 2238 ft 2 kts 187°
2026-05-01 10:21 39.69743 66.98901 2238 ft 2 kts 187°
2026-05-01 10:21 39.69758 66.98903 2238 ft 2 kts 187°
2026-05-01 10:22 39.69787 66.98911 2238 ft 2 kts 214°
2026-05-01 10:22 39.69803 66.98943 2238 ft 2 kts 260°
2026-05-01 10:23 39.69803 66.98958 2238 ft 1 kts 276°
2026-05-01 10:23 39.69803 66.98959 2238 ft 0 kts 276°
2026-05-01 10:26 39.69804 66.98955 2238 ft 2 kts 276°
2026-05-01 10:26 39.69807 66.98909 2238 ft 3 kts 275°
2026-05-01 10:27 39.69815 66.98814 2238 ft 5 kts 275°
2026-05-01 10:27 39.69823 66.98697 2238 ft 6 kts 276°
2026-05-01 10:28 39.69828 66.98643 2238 ft 5 kts 276°
2026-05-01 10:28 39.69836 66.98547 2238 ft 4 kts 276°
2026-05-01 10:28 39.69839 66.98502 2238 ft 5 kts 276°
2026-05-01 10:29 39.69850 66.98362 2238 ft 8 kts 277°
2026-05-01 10:29 39.69856 66.98288 2238 ft 7 kts 276°
2026-05-01 10:30 39.69865 66.98160 2238 ft 7 kts 276°
2026-05-01 10:30 39.69875 66.98041 2238 ft 6 kts 277°
2026-05-01 10:31 39.69890 66.97855 2238 ft 11 kts 276°
2026-05-01 10:31 39.69904 66.97671 2238 ft 9 kts 276°
2026-05-01 10:32 39.69923 66.97463 2238 ft 20 kts 280°
2026-05-01 10:32 39.69958 66.97269 2237 ft 22 kts 284°
2026-05-01 10:32 39.70027 66.96905 2238 ft 19 kts 284°
2026-05-01 10:33 39.70082 66.96614 2238 ft 13 kts 283°
2026-05-01 10:33 39.70154 66.96437 2237 ft 10 kts 358°
2026-05-01 10:34 39.70211 66.96443 2237 ft 0 kts
2026-05-01 10:34 39.70213 66.96444 2237 ft 0 kts
2026-05-01 10:35 39.70283 66.96470 2237 ft 7 kts 45°
2026-05-01 10:35 39.70296 66.96532 2237 ft 6 kts 94°
2026-05-01 10:35 39.70295 66.96556 2237 ft 0 kts 95°
2026-05-01 10:37 39.70276 66.96814 2238 ft 76 kts 97°
2026-05-01 10:37 39.70039 66.99355 2543 ft 173 kts 103°
2026-05-01 10:37 39.69785 67.00905 3200 ft 183 kts 106°
2026-05-01 10:38 39.69416 67.02460 4021 ft 183 kts 110°
2026-05-01 10:38 39.69012 67.04030 4741 ft 188 kts 108°
2026-05-01 10:38 39.68851 67.05717 5431 ft 195 kts 90°
2026-05-01 10:38 39.68962 67.07475 6213 ft 198 kts 81°
2026-05-01 10:39 39.69544 67.09139 6811 ft 210 kts 56°
2026-05-01 10:39 39.70533 67.10493 7489 ft 218 kts 42°
2026-05-01 10:39 39.71860 67.11401 8198 ft 221 kts 16°
2026-05-01 10:39 39.73401 67.11422 8893 ft 225 kts 346°
2026-05-01 10:40 39.74768 67.10459 9515 ft 229 kts 315°
2026-05-01 10:40 39.75482 67.08671 10102 ft 227 kts 279°
2026-05-01 10:40 39.75691 67.06623 10747 ft 231 kts 274°
2026-05-01 10:40 39.75878 67.04562 11391 ft 232 kts 275°
2026-05-01 10:41 39.76059 67.02497 12061 ft 234 kts 273°
2026-05-01 10:41 39.76238 67.00395 12736 ft 235 kts 273°
2026-05-01 10:41 39.76590 66.96184 14072 ft 238 kts 273°
2026-05-01 10:42 39.76769 66.94078 14820 ft 237 kts 273°
2026-05-01 10:42 39.76945 66.91945 15569 ft 238 kts 274°
2026-05-01 10:42 39.77111 66.89824 16289 ft 237 kts 270°
2026-05-01 10:42 39.76955 66.87722 16956 ft 235 kts 255°
2026-05-01 10:43 39.76606 66.85674 17668 ft 235 kts 260°
2026-05-01 10:43 39.76900 66.83592 18316 ft 244 kts 299°
2026-05-01 10:43 39.78222 66.82229 18909 ft 254 kts 340°
2026-05-01 10:43 39.79970 66.82282 19463 ft 259 kts 23°
2026-05-01 10:44 39.81430 66.83637 20054 ft 259 kts 46°
2026-05-01 10:44 39.82689 66.85299 20688 ft 262 kts 49°
2026-05-01 10:44 39.83919 66.87028 21331 ft 264 kts 51°
2026-05-01 10:44 39.85147 66.88836 22000 ft 265 kts 52°
2026-05-01 10:45 39.86319 66.90608 22608 ft 252 kts 53°
2026-05-01 10:45 39.87431 66.92316 22912 ft 250 kts 55°
2026-05-01 10:45 39.88598 66.94158 22452 ft 284 kts 54°
2026-05-01 10:45 39.89943 66.96345 21110 ft 338 kts 53°
2026-05-01 10:46 39.91406 66.98738 21205 ft 337 kts 54°
2026-05-01 10:46 39.92882 67.01151 21263 ft 338 kts 53°
2026-05-01 10:46 39.94335 67.03538 21340 ft 339 kts 54°
2026-05-01 10:46 39.95790 67.05946 21394 ft 340 kts 54°
2026-05-01 10:47 39.97269 67.08399 21446 ft 341 kts 54°
2026-05-01 10:47 39.98728 67.10827 21499 ft 342 kts 54°
2026-05-01 10:47 40.00203 67.13285 21552 ft 343 kts 54°
2026-05-01 10:47 40.01677 67.15746 21598 ft 344 kts 54°
2026-05-01 10:48 40.03132 67.18178 21652 ft 344 kts 54°
2026-05-01 10:48 40.04612 67.20655 21703 ft 344 kts 54°
2026-05-01 10:48 40.06066 67.23094 21753 ft 344 kts 54°
2026-05-01 10:48 40.07546 67.25578 21805 ft 343 kts 54°
2026-05-01 10:49 40.09002 67.28024 21858 ft 344 kts 54°
2026-05-01 10:49 40.10480 67.30508 21905 ft 344 kts 54°
2026-05-01 10:49 40.11951 67.32985 21954 ft 344 kts 54°
2026-05-01 10:49 40.13401 67.35427 22007 ft 344 kts 54°
2026-05-01 10:50 40.14876 67.37914 22055 ft 343 kts 55°
2026-05-01 10:50 40.16329 67.40366 22104 ft 343 kts 54°
2026-05-01 10:50 40.17783 67.42819 22153 ft 342 kts 54°
2026-05-01 10:50 40.19247 67.45293 22202 ft 342 kts 55°
2026-05-01 10:51 40.20680 67.47718 22248 ft 341 kts 54°
2026-05-01 10:51 40.22150 67.50204 22292 ft 341 kts 55°
2026-05-01 10:51 40.23588 67.52642 22333 ft 341 kts 54°
2026-05-01 10:51 40.24972 67.55184 22384 ft 339 kts 61°
2026-05-01 10:52 40.26141 67.57833 22430 ft 338 kts 63°
2026-05-01 10:52 40.27291 67.60512 22472 ft 338 kts 63°
2026-05-01 10:52 40.28434 67.63174 22521 ft 338 kts 64°
2026-05-01 10:52 40.29595 67.65875 22564 ft 338 kts 64°
2026-05-01 10:53 40.30742 67.68543 22622 ft 337 kts 64°
2026-05-01 10:53 40.31887 67.71205 22663 ft 337 kts 64°
2026-05-01 10:53 40.33042 67.73893 22704 ft 337 kts 64°
2026-05-01 10:53 40.34189 67.76558 22760 ft 337 kts 64°
2026-05-01 10:54 40.35331 67.79216 22809 ft 336 kts 64°
2026-05-01 10:54 40.36490 67.81911 22858 ft 336 kts 64°
2026-05-01 10:54 40.37631 67.84569 22906 ft 336 kts 64°
2026-05-01 10:54 40.38771 67.87225 22957 ft 336 kts 64°
2026-05-01 10:55 40.39927 67.89919 22999 ft 336 kts 64°
2026-05-01 10:55 40.41071 67.92589 23006 ft 337 kts 64°
2026-05-01 10:55 40.42211 67.95255 23005 ft 339 kts 64°
2026-05-01 10:55 40.43361 67.97945 23003 ft 340 kts 64°
2026-05-01 10:56 40.44535 68.00691 23006 ft 341 kts 64°
2026-05-01 10:56 40.45696 68.03410 23005 ft 341 kts 64°
2026-05-01 10:56 40.46844 68.06104 23008 ft 342 kts 64°
2026-05-01 10:56 40.48015 68.08852 22998 ft 343 kts 64°
2026-05-01 10:57 40.49175 68.11576 23005 ft 343 kts 64°
2026-05-01 10:57 40.50330 68.14293 22999 ft 343 kts 64°
2026-05-01 10:57 40.51497 68.17045 22992 ft 343 kts 64°
2026-05-01 10:57 40.52652 68.19765 22984 ft 344 kts 64°
2026-05-01 10:58 40.53810 68.22497 22985 ft 344 kts 64°
2026-05-01 10:58 40.54990 68.25279 22989 ft 343 kts 64°
2026-05-01 10:58 40.56146 68.28007 22991 ft 344 kts 64°
2026-05-01 10:58 40.57301 68.30739 22988 ft 344 kts 64°
2026-05-01 10:59 40.58461 68.33485 22981 ft 344 kts 64°
2026-05-01 10:59 40.59620 68.36229 22984 ft 344 kts 64°
2026-05-01 10:59 40.60786 68.38989 22978 ft 344 kts 63°
2026-05-01 10:59 40.62158 68.41560 22977 ft 346 kts 51°
2026-05-01 11:00 40.63804 68.43861 22968 ft 347 kts 48°
2026-05-01 11:00 40.65458 68.46127 22976 ft 346 kts 48°
2026-05-01 11:00 40.67146 68.48441 22977 ft 346 kts 48°
2026-05-01 11:00 40.68807 68.50723 22976 ft 346 kts 48°
2026-05-01 11:01 40.70464 68.53007 22974 ft 346 kts 48°
2026-05-01 11:01 40.72140 68.55322 22976 ft 346 kts 49°
2026-05-01 11:01 40.73788 68.57601 22978 ft 346 kts 49°
2026-05-01 11:01 40.75434 68.59941 22977 ft 346 kts 50°
2026-05-01 11:02 40.77019 68.62330 22962 ft 346 kts 51°
2026-05-01 11:02 40.78608 68.64743 22632 ft 354 kts 51°
2026-05-01 11:02 40.80211 68.67164 22189 ft 350 kts 51°
2026-05-01 11:02 40.82005 68.69337 21739 ft 348 kts 39°
2026-05-01 11:03 40.83979 68.71190 21266 ft 346 kts 37°
2026-05-01 11:03 40.85932 68.72991 20811 ft 344 kts 37°
2026-05-01 11:03 40.87897 68.74805 20348 ft 341 kts 37°
2026-05-01 11:03 40.89817 68.76582 19890 ft 339 kts 37°
2026-05-01 11:04 40.91741 68.78368 19434 ft 337 kts 37°
2026-05-01 11:04 40.93660 68.80152 18985 ft 335 kts 37°
2026-05-01 11:04 40.95560 68.81923 18539 ft 332 kts 37°
2026-05-01 11:04 40.97420 68.83659 18100 ft 330 kts 37°
2026-05-01 11:05 40.99299 68.85413 17663 ft 328 kts 37°
2026-05-01 11:05 41.01146 68.87140 17231 ft 326 kts 37°
2026-05-01 11:05 41.02996 68.88873 16798 ft 324 kts 37°
2026-05-01 11:05 41.04816 68.90579 16376 ft 322 kts 37°
2026-05-01 11:06 41.06647 68.92296 15948 ft 320 kts 37°
2026-05-01 11:06 41.08448 68.93986 15527 ft 317 kts 36°
2026-05-01 11:06 41.10218 68.95658 15083 ft 316 kts 38°
2026-05-01 11:07 41.12273 69.00496 14228 ft 304 kts 81°
2026-05-01 11:07 41.12616 69.03261 13830 ft 301 kts 83°
2026-05-01 11:07 41.12933 69.05973 13430 ft 299 kts 83°
2026-05-01 11:07 41.13248 69.08708 13025 ft 297 kts 83°
2026-05-01 11:08 41.13553 69.11378 12638 ft 294 kts 82°
2026-05-01 11:08 41.13860 69.14065 12244 ft 292 kts 82°
2026-05-01 11:08 41.14460 69.19331 11481 ft 287 kts 82°
2026-05-01 11:09 41.14753 69.21912 11114 ft 284 kts 82°
2026-05-01 11:09 41.15045 69.24491 10744 ft 282 kts 82°
2026-05-01 11:09 41.15335 69.27054 10372 ft 280 kts 82°
2026-05-01 11:10 41.15904 69.32095 9639 ft 276 kts 81°
2026-05-01 11:10 41.16183 69.34582 9276 ft 274 kts 81°
2026-05-01 11:10 41.16462 69.37070 8913 ft 272 kts 81°
2026-05-01 11:10 41.16738 69.39535 8554 ft 271 kts 81°
2026-05-01 11:11 41.17016 69.42011 8190 ft 265 kts 81°
2026-05-01 11:11 41.17284 69.44402 7843 ft 259 kts 81°
2026-05-01 11:11 41.17544 69.46717 7505 ft 254 kts 80°
2026-05-01 11:11 41.17804 69.49030 7160 ft 250 kts 79°
2026-05-01 11:12 41.18371 69.51160 6537 ft 249 kts 52°
2026-05-01 11:12 41.19719 69.52386 6239 ft 232 kts 14°
2026-05-01 11:12 41.21294 69.52487 5970 ft 219 kts 356°
2026-05-01 11:12 41.22763 69.52341 5692 ft 208 kts 355°
2026-05-01 11:13 41.24165 69.52170 5424 ft 196 kts 354°
2026-05-01 11:13 41.25482 69.51991 5172 ft 184 kts 354°
2026-05-01 11:13 41.26703 69.51812 4921 ft 171 kts 352°
2026-05-01 11:13 41.27748 69.51154 4517 ft 166 kts 306°
2026-05-01 11:14 41.28012 69.49699 4352 ft 170 kts 271°
2026-05-01 11:14 41.27934 69.48083 4152 ft 180 kts 265°
2026-05-01 11:14 41.27593 69.46455 3978 ft 183 kts 262°
2026-05-01 11:14 41.27570 69.44840 3869 ft 170 kts 274°
2026-05-01 11:15 41.27477 69.43314 3762 ft 162 kts 264°
2026-05-01 11:15 41.27321 69.41886 3604 ft 152 kts 266°
2026-05-01 11:15 41.27175 69.40502 3140 ft 149 kts 265°
2026-05-01 11:15 41.27031 69.39173 2762 ft 143 kts 268°
2026-05-01 11:16 41.26934 69.37872 2477 ft 140 kts 268°
2026-05-01 11:16 41.26790 69.36610 2277 ft 137 kts 263°
2026-05-01 11:16 41.26626 69.35345 2148 ft 139 kts 264°
2026-05-01 11:16 41.26464 69.34050 2044 ft 148 kts 265°
2026-05-01 11:17 41.26340 69.32644 1831 ft 155 kts 262°
2026-05-01 11:17 41.26191 69.31289 1585 ft 143 kts 260°
2026-05-01 11:17 41.26053 69.30042 1441 ft 130 kts 262°
2026-05-01 11:17 41.25942 69.28970 1425 ft 92 kts 258°
2026-05-01 11:18 41.25872 69.28313 1425 ft 57 kts 259°
2026-05-01 11:18 41.25825 69.27895 1425 ft 33 kts 262°
2026-05-01 11:18 41.25800 69.27691 1425 ft 13 kts 262°
2026-05-01 11:18 41.25749 69.27635 1425 ft 9 kts 176°
2026-05-01 11:19 41.25700 69.27677 1425 ft 8 kts 138°
2026-05-01 11:19 41.25652 69.27712 1425 ft 7 kts 172°
2026-05-01 11:19 41.25613 69.27682 1425 ft 5 kts 240°
2026-05-01 11:19 41.25603 69.27640 1425 ft 3 kts 263°
2026-05-01 11:20 41.25597 69.27583 1425 ft 10 kts 261°
2026-05-01 11:20 41.25583 69.27464 1425 ft 12 kts 261°
2026-05-01 11:20 41.25573 69.27364 1425 ft 9 kts 262°
2026-05-01 11:20 41.25561 69.27287 1425 ft 7 kts 249°
2026-05-01 11:21 41.25539 69.27238 1425 ft 5 kts 234°
2026-05-01 11:21 41.25518 69.27201 1425 ft 4 kts 232°
2026-05-01 11:21 41.25503 69.27174 1425 ft 3 kts 233°
2026-05-01 11:21 41.25487 69.27148 1425 ft 6 kts 231°
2026-05-01 11:22 41.25459 69.27102 1425 ft 5 kts 230°
2026-05-01 11:22 41.25423 69.27044 1425 ft 16 kts 231°
2026-05-01 11:22 41.25360 69.26936 1425 ft 13 kts 231°
2026-05-01 11:22 41.25309 69.26852 1425 ft 12 kts 232°
2026-05-01 11:23 41.25264 69.26776 1425 ft 8 kts 231°
2026-05-01 11:23 41.25232 69.26746 1425 ft 5 kts 186°
2026-05-01 11:23 41.25196 69.26739 1425 ft 5 kts 220°
2026-05-01 11:23 41.25191 69.26698 1425 ft 3 kts 268°
2026-05-01 11:24 41.25191 69.26666 1425 ft 2 kts 269°
2026-05-01 11:24 41.25191 69.26637 1425 ft 3 kts 270°
2026-05-01 11:24 41.25185 69.26587 1425 ft 2 kts 231°
2026-05-01 11:25 41.25174 69.26578 1425 ft 2 kts 191°
2026-05-01 11:25 41.25157 69.26578 1425 ft 0 kts 180°